TimePDT,TemperatureF,Dew PointF,Humidity,Sea Level PressureIn,VisibilityMPH,Wind Direction,Wind SpeedMPH,Gust SpeedMPH,PrecipitationIn,Events,Conditions,WindDirDegrees,DateUTC
12:53 AM,43.0,39.9,89,30.32,8.0,Calm,Calm,-,N/A,,Clear,0,2013-10-14 07:53:00
1:53 AM,42.1,39.0,89,30.33,7.0,Calm,Calm,-,N/A,,Clear,0,2013-10-14 08:53:00
2:53 AM,39.9,37.9,93,30.33,9.0,Calm,Calm,-,N/A,,Clear,0,2013-10-14 09:53:00
3:49 AM,39.2,37.4,93,30.33,5.0,Calm,Calm,-,N/A,,Partly Cloudy,0,2013-10-14 10:49:00
3:53 AM,39.9,37.9,93,30.33,5.0,Calm,Calm,-,N/A,,Scattered Clouds,0,2013-10-14 10:53:00
4:20 AM,42.8,39.2,87,30.33,7.0,Calm,Calm,-,N/A,,Mostly Cloudy,0,2013-10-14 11:20:00
4:34 AM,42.8,42.8,100,30.34,1.8,ENE,3.5,-,0.01,,Overcast,60,2013-10-14 11:34:00
4:41 AM,42.8,42.8,100,30.34,0.8,Calm,Calm,-,0.01,,Overcast,0,2013-10-14 11:41:00
4:49 AM,42.8,42.8,100,30.34,1.2,Calm,Calm,-,0.01,,Overcast,0,2013-10-14 11:49:00
4:53 AM,42.1,42.1,100,30.34,0.8,Calm,Calm,-,0.01,,Overcast,0,2013-10-14 11:53:00
5:09 AM,42.8,42.8,100,30.34,0.2,Calm,Calm,-,N/A,Fog,Fog,0,2013-10-14 12:09:00
5:16 AM,42.8,42.8,100,30.35,0.8,Calm,Calm,-,N/A,,Mist,0,2013-10-14 12:16:00
5:20 AM,42.8,42.8,100,30.35,1.5,Calm,Calm,-,N/A,,Overcast,0,2013-10-14 12:20:00
5:24 AM,42.8,42.8,100,30.35,3.0,Calm,Calm,-,N/A,,Overcast,0,2013-10-14 12:24:00
5:50 AM,39.2,39.2,100,30.35,4.0,Calm,Calm,-,N/A,,Scattered Clouds,0,2013-10-14 12:50:00
5:53 AM,39.9,37.9,93,30.35,3.0,Calm,Calm,-,N/A,,Partly Cloudy,0,2013-10-14 12:53:00
6:00 AM,39.2,39.2,100,30.35,2.5,Calm,Calm,-,N/A,,Clear,0,2013-10-14 13:00:00
6:08 AM,41.0,39.2,93,30.35,8.0,Calm,Calm,-,N/A,,Clear,0,2013-10-14 13:08:00
6:53 AM,39.9,39.0,97,30.37,10.0,Calm,Calm,-,N/A,,Clear,0,2013-10-14 13:53:00
7:53 AM,37.9,37.0,97,30.38,4.0,Calm,Calm,-,N/A,,Clear,0,2013-10-14 14:53:00
8:53 AM,43.0,41.0,93,30.39,10.0,Calm,Calm,-,N/A,,Clear,0,2013-10-14 15:53:00
9:53 AM,48.0,42.1,80,30.38,10.0,NW,3.5,-,N/A,,Clear,320,2013-10-14 16:53:00
10:53 AM,51.1,43.0,74,30.38,10.0,NW,3.5,-,N/A,,Clear,310,2013-10-14 17:53:00
11:53 AM,57.0,44.1,62,30.37,10.0,Calm,Calm,-,N/A,,Clear,0,2013-10-14 18:53:00
12:53 PM,57.9,44.1,60,30.36,10.0,West,6.9,-,N/A,,Clear,280,2013-10-14 19:53:00
1:53 PM,63.0,46.0,54,30.33,10.0,NW,6.9,-,N/A,,Clear,310,2013-10-14 20:53:00
2:53 PM,66.0,46.0,48,30.31,10.0,WNW,9.2,-,N/A,,Clear,300,2013-10-14 21:53:00
3:53 PM,66.9,43.0,42,30.30,10.0,NW,6.9,-,N/A,,Clear,320,2013-10-14 22:53:00
4:53 PM,68.0,41.0,37,30.30,10.0,North,6.9,-,N/A,,Clear,350,2013-10-14 23:53:00
5:53 PM,64.0,44.1,48,30.31,10.0,North,5.8,-,N/A,,Clear,350,2013-10-15 00:53:00
6:53 PM,61.0,45.0,56,30.31,10.0,NNE,4.6,-,N/A,,Clear,20,2013-10-15 01:53:00
7:53 PM,57.9,44.1,60,30.32,10.0,NNW,4.6,-,N/A,,Clear,340,2013-10-15 02:53:00
8:53 PM,52.0,44.1,74,30.32,10.0,Calm,Calm,-,N/A,,Clear,0,2013-10-15 03:53:00
9:53 PM,48.9,43.0,80,30.33,10.0,Calm,Calm,-,N/A,,Clear,0,2013-10-15 04:53:00
10:53 PM,44.1,41.0,89,30.35,10.0,Calm,Calm,-,N/A,,Clear,0,2013-10-15 05:53:00
11:53 PM,44.1,41.0,89,30.35,10.0,Calm,Calm,-,N/A,,Clear,0,2013-10-15 06:53:00